sat.trackr.live / text

‹ back to catalog

STARLINK-31623

NORAD 59272 · 2024-050U

PAYLOAD ACTIVE UNKNOWN

§ Identity

Operator
Country
US
Launch date
2024-03-19
Launch site
AFWTR
Launch vehicle
Mass (kg)
RCS (m²)

Purposes: comms

External: N2YO · Heavens-Above · Gunter

§ Orbital elements

Epoch: 2026-05-24T20:21:57.218688Z

Period
94.11 min
Inclination
53.1599°
Eccentricity
0.0001161
Mean motion
15.30190613 rev/d
Perigee alt
474.4 km
Apogee alt
476.0 km
Semi-major
6,853.4 km
B*
2.0081e-5
RAAN
186.9063°
Arg perigee
81.1336°
Mean anomaly
278.9796°
Rev number
12,221

§ Raw data

STARLINK-316231 59272U 24050U   26144.84857892  .00000236  00000+0  20081-4 0  99992 59272  53.1599 186.9063 0001161  81.1336 278.9796 15.30190613122218

JSON: /api/v1/satellites/59272 · /tle

For live sub-satellite position, see the globe view (requires WebGL).

§ Visibility from observer

Set your observer location to see the next 7 days of passes ≥ 10°. The values pass through the URL so the page stays shareable.

No JS? Fill the form by hand. The geolocation button needs JavaScript.